軌道要素
Epoch 2015 May 18.0 TT = JDT 2457160.5
T 2015 May 17.27652 TT Rudenko
q 1.7233813 (2000.0) P Q
n 0.15108080 Peri. 72.34865 +0.79030753 -0.60781123
a 3.4913753 Node 324.96837 +0.49861324 +0.71134294
e 0.5063890 Incl. 7.74184 +0.35608825 +0.35292597
P 6.52
From 538 observations 2008 Aug. 25-2021 Aug. 17, mean residual 0".8.
|